User: anonymous   Login
Location: Dürabuch
(48.2640°N, 11.2185°E)
Time: 11:56:32
(UTC+00:00)
Language:

Cosmos 2228 Rocket - Orbit

View from above orbital plane
View from above orbital plane
View from above satellite
View from above satellite

Ground track
Ground track

The orbit data is extracted from the following two-line orbital elements,

1 22287U 92094B   24200.95711720  .00000995  00000-0  13050-3 0  9990
2 22287  82.5236 190.1505 0025375 136.2821 224.0408 14.79128549679984
Epoch (UTC): 18 July 2024 22:58:14
Eccentricity: 0.0025375
inclination: 82.5236°
perigee height: 614 km
apogee height: 650 km
right ascension of ascending node: 190.1505°
argument of perigee: 136.2821°
revolutions per day: 14.79128549
mean anomaly at epoch: 224.0408°
orbit number at epoch: 67998

The dashed part of the orbit path shows where the satellite is in the earth's shadow,  

DLR